"Time","Temp","Dewpoint","Humidity","Pressure","Direction","Speed","Gust","Precip","PrecipRate"
"00:04:58","50.3","49.6","97.2","29.75","320","3","8.4","0.00","0.00"
"00:09:57","50.2","49.4","97","29.75","331","3","6","0.00","0.00"
"00:14:57","50.2","49.4","97","29.75","297","2.8","7.2","0.00","0.00"
"00:19:59","50.1","49.3","97","29.74","326","2.1","4.8","0.00","0.00"
"00:24:56","50.1","49.3","97","29.74","346","2.1","7.2","0.00","0.00"
"00:29:57","50.1","49.3","97","29.74","346","1.3","3.6","0.00","0.00"
"00:34:59","50.1","49.3","97","29.74","346","1.4","3.6","0.00","0.00"
"00:39:57","50.1","49.3","97","29.74","346","0.5","2.4","0.00","0.00"
"00:44:59","50.1","49.3","97","29.74","346","1","2.4","0.00","0.00"
"00:49:56","50.1","49.3","97","29.74","347","0.8","6","0.00","0.00"
"00:54:57","50.2","49.4","97","29.74","355","1","5.8","0.00","0.00"
"00:59:58","50.2","49.4","97.2","29.74","355","1","3.6","0.00","0.00"
"01:04:59","50.1","49.3","97","29.73","355","0","1.2","0.00","0.00"
"01:09:57","50.1","49.3","97","29.73","355","0.7","4.8","0.00","0.00"
"01:14:59","50.1","49.5","97.5","29.73","339","1.7","4.8","0.00","0.00"
"01:19:56","50.1","49.6","97.8","29.73","331","2.1","4.8","0.00","0.00"
"01:24:57","50.1","49.6","97.9","29.73","333","2.3","4.8","0.00","0.00"
"01:29:58","50.1","49.5","97.5","29.73","323","2.5","7.2","0.00","0.00"
"01:34:59","50.1","49.4","97.4","29.73","335","3.7","7.2","0.00","0.00"
"01:39:57","50.1","49.3","97.1","29.73","316","2.2","4.8","0.00","0.00"
"01:44:58","50.1","49.6","98","29.73","320","2.9","6","0.00","0.00"
"01:49:59","50.1","49.5","97.8","29.73","327","2.6","4.8","0.00","0.00"
"01:54:56","50","49.5","98","29.73","329","0.7","4.8","0.00","0.00"
"01:59:56","50","49.5","98","29.73","307","2.4","6","0.00","0.00"
"02:04:57","50","49.5","98","29.73","301","1.5","4.8","0.00","0.00"
"02:09:59","49.9","49.4","98","29.73","321","2.8","6","0.00","0.00"
"02:14:57","49.9","49.4","98","29.74","319","1.5","4.8","0.00","0.00"
"02:19:59","49.9","49.4","98","29.74","318","1.5","3.6","0.00","0.00"
"02:24:56","49.8","49.3","98","29.74","318","1.9","4.8","0.00","0.00"
"02:29:57","49.8","49.3","98","29.74","320","1","4.6","0.00","0.00"
"02:34:58","49.8","49.3","98","29.74","316","2","4.8","0.00","0.00"
"02:39:56","49.7","49.2","98","29.74","314","1.9","3.6","0.00","0.00"
"02:44:57","49.7","49.2","98","29.74","305","1.5","3.6","0.00","0.00"
"02:49:58","49.7","48.9","97.1","29.74","317","1.8","6","0.00","0.00"
"02:54:59","49.6","48.8","97","29.74","327","2.7","5.8","0.00","0.00"
"02:59:59","49.6","48.8","97","29.74","341","2.9","4.8","0.00","0.00"
"03:04:57","49.6","48.8","97","29.73","349","1.7","4.8","0.00","0.00"
"03:09:59","49.5","48.7","97","29.73","349","2.5","4.8","0.00","0.00"
"03:14:58","49.5","48.8","97.2","29.73","359","3.1","6","0.00","0.00"
"03:19:59","49.5","48.9","97.7","29.73","313","2.8","6","0.00","0.00"
"03:24:56","49.5","48.9","97.7","29.73","299","2.1","4.8","0.00","0.00"
"03:29:56","49.4","48.8","97.6","29.73","323","2.7","4.8","0.00","0.00"
"03:34:59","49.4","48.8","97.5","29.72","326","1.1","3.5","0.00","0.00"
"03:39:56","49.4","48.8","97.8","29.72","324","1.8","6","0.00","0.00"
"03:44:58","49.3","48.8","98","29.72","317","2.4","6","0.00","0.00"
"03:49:59","49.3","48.8","98","29.72","358","1.6","4.8","0.00","0.00"
"03:54:57","49.2","48.7","98","29.72","356","0.9","3.6","0.00","0.00"
"03:59:56","49.2","48.7","98","29.72","350","2.3","6","0.00","0.00"
"04:04:57","49.2","48.6","97.7","29.72","336","2.8","7.2","0.00","0.00"
"04:09:59","49.1","48.3","97","29.72","315","2.8","6","0.00","0.00"
"04:14:58","49","48.2","97","29.72","326","2.6","5.8","0.00","0.00"
"04:19:59","49","48.2","97","29.72","339","2.2","6","0.00","0.00"
"04:24:56","49","48.2","97","29.72","320","2.9","8.4","0.00","0.00"
"04:29:56","49","48.2","97","29.72","328","2.3","4.8","0.00","0.00"
"04:34:57","49.1","48.3","97","29.72","336","2","4.8","0.00","0.00"
"04:39:59","49.1","48.3","97","29.72","322","2.5","10.8","0.00","0.00"
"04:44:56","49.1","48.3","97","29.72","333","3.6","10.4","0.00","0.00"
"04:49:57","49.1","48.3","97","29.72","335","4.5","13.2","0.00","0.00"
"04:54:58","49.2","48.4","97","29.72","335","5.7","12","0.00","0.00"
"04:59:59","49.2","48.4","97","29.73","339","2.8","11.5","0.00","0.00"
"05:04:59","49.2","48.4","97","29.73","325","2.7","7.2","0.00","0.00"
"05:09:57","49.2","48.4","97","29.73","316","3","8.4","0.00","0.00"
"05:14:56","49.2","48.4","97","29.73","328","2.2","6","0.00","0.00"
"05:19:56","49.2","48.4","97","29.73","336","3.8","10.8","0.00","0.00"
"05:24:57","49.2","48.4","97","29.73","343","3.5","10.4","0.00","0.00"
"05:29:58","49.2","48.4","97","29.73","351","2.2","4.8","0.00","0.00"
"05:34:59","49.3","48.5","97","29.73","338","3.4","8.4","0.00","0.00"
"05:39:57","49.3","48.5","97","29.73","323","2.9","6","0.00","0.00"
"05:44:58","49.3","48.5","97","29.74","296","3","7.2","0.00","0.00"
"05:49:59","49.3","48.5","97","29.74","324","3.2","10.8","0.00","0.00"
"05:54:56","49.3","48.5","97","29.74","333","4.2","12","0.00","0.00"
"05:59:57","49.3","48.5","97","29.74","334","2","6","0.00","0.00"
"06:04:57","49.3","48.5","97","29.74","314","2.8","7.2","0.00","0.00"
"06:09:57","49.3","48.3","96.3","29.74","335","1.6","4.8","0.00","0.00"
"06:14:59","49.3","48.2","96","29.74","348","1.7","4.8","0.00","0.00"
"06:19:56","49.3","48.2","96","29.74","351","2.3","6","0.00","0.00"
"06:24:58","49.3","48.2","96","29.74","350","2.2","6","0.00","0.00"
"06:29:58","49.2","48.1","96","29.74","350","1.7","6","0.00","0.00"
"06:34:59","49.2","48.1","96","29.74","350","1.4","4.8","0.00","0.00"
"06:39:57","49.2","48.1","96","29.74","350","0.8","3.6","0.00","0.00"
"06:44:59","49.1","48","96","29.75","350","0.1","2.3","0.00","0.00"
"06:49:59","48.9","47.8","96","29.75","350","0","1.2","0.00","0.00"
"06:54:57","48.8","47.7","96","29.75","350","0.1","2.4","0.00","0.00"
"06:59:58","48.8","48","97","29.75","350","0.7","2.4","0.00","0.00"
"07:04:58","48.8","48","97","29.75","350","0.5","2.4","0.00","0.00"
"07:09:56","48.8","48","97","29.75","350","0.5","2.4","0.00","0.00"
"07:14:59","48.8","48","97","29.75","350","0","0","0.00","0.00"
"07:19:56","48.8","48","97","29.75","350","0","1.2","0.00","0.00"
"07:24:57","48.8","48","97","29.75","350","0.1","1.2","0.00","0.00"
"07:29:56","48.7","47.9","97","29.76","350","0","0","0.00","0.00"
"07:34:58","48.8","48","97","29.76","350","0.2","2.4","0.00","0.00"
"07:39:56","48.9","48.1","97","29.76","336","1.1","4.8","0.00","0.00"
"07:44:57","49","48.2","97","29.76","325","3.4","10.8","0.00","0.00"
"07:49:58","49","48.2","97","29.76","351","3.5","10.4","0.00","0.00"
"07:54:56","49.1","48.3","97","29.76","342","4.1","9.6","0.00","0.00"
"07:59:57","49.1","48.1","96.2","29.76","350","3.5","9.2","0.00","0.00"
"08:04:58","49.1","48","96","29.76","330","3.4","8.4","0.00","0.00"
"08:09:56","49.2","48.1","96","29.76","337","2.3","6","0.00","0.00"
"08:14:58","49.1","48","96","29.76","336","2.7","6","0.00","0.00"
"08:19:58","49.1","48","96","29.74","349","2.5","4.8","0.00","0.00"
"08:24:59","49.2","48.1","96","29.74","345","2.5","6","0.00","0.00"
"08:29:56","49.4","48.3","96","29.75","345","1.5","4.6","0.00","0.00"
"08:34:57","49.5","48.4","96","29.75","345","2.7","7.2","0.00","0.00"
"08:39:58","49.6","48.4","95.8","29.75","325","2.1","4.8","0.00","0.00"
"08:44:59","49.7","48.6","95.9","29.75","344","1.5","4.8","0.00","0.00"
"08:49:59","49.8","48.4","95","29.74","344","0.6","3.6","0.00","0.00"
"08:54:57","50.1","48.6","94.8","29.74","344","0","0","0.00","0.00"
"08:59:57","51.1","49.3","93.7","29.74","344","0","0","0.00","0.00"
"09:04:58","51.8","49.5","91.7","29.74","341","1","4.8","0.00","0.00"
"09:09:56","52.2","49.7","91","29.74","333","2.3","6","0.00","0.00"
"09:14:59","52.4","49.6","90.2","29.75","329","2.8","7.2","0.00","0.00"
"09:19:58","52.5","49.7","90","29.75","320","1.4","3.6","0.00","0.00"
"09:24:58","53","50","89.7","29.75","315","2.1","7.2","0.00","0.00"
"09:29:59","53.3","49.9","88.2","29.75","317","2.7","6","0.00","0.00"
"09:34:56","53.4","50.1","88.4","29.75","321","2.3","6","0.00","0.00"
"09:39:57","53.7","50.2","88.2","29.75","344","4.3","8.4","0.00","0.00"
"09:44:58","53.9","50.4","87.9","29.75","318","2.9","6","0.00","0.00"
"09:49:59","54.2","50.5","87.3","29.75","311","2.7","7.2","0.00","0.00"
"09:54:59","54.3","50.4","86.7","29.75","328","4.5","8.4","0.00","0.00"
"09:59:56","53.7","50","87.2","29.75","337","5","12","0.00","0.00"
"10:04:56","53.4","49.9","88","29.75","324","4.3","8.4","0.00","0.00"
"10:09:59","54.1","50.7","88.7","29.75","311","2.4","7.2","0.00","0.00"
"10:14:57","55","50.9","86","29.75","326","2.8","6","0.00","0.00"
"10:19:58","55.1","50.9","85.7","29.75","332","2.6","8.4","0.00","0.00"
"10:24:59","55.5","51.3","85.6","29.75","330","1.9","6","0.00","0.00"
"10:29:59","55.7","51.2","84.9","29.76","322","2.8","10.8","0.00","0.00"
"10:34:57","55.6","50.6","83.5","29.76","333","6.5","16.1","0.00","0.00"
"10:39:59","55.8","50.8","83.5","29.76","325","4.7","13.2","0.00","0.00"
"10:44:56","55.9","51","83.5","29.76","318","3","8.4","0.00","0.00"
"10:49:57","56.4","50.8","81.5","29.75","314","5.7","13.2","0.00","0.00"
"10:54:58","57.2","51.4","80.8","29.75","310","4.5","12","0.00","0.00"
"10:59:58","57.1","50.8","79.5","29.75","329","6.2","13.2","0.00","0.00"
"11:04:58","56.9","50.7","79.7","29.73","321","6.2","16.1","0.00","0.00"
"11:09:56","57.3","50.8","78.9","29.73","327","6.8","18.4","0.00","0.00"
"11:14:58","57","50.5","78.9","29.74","324","6.1","12","0.00","0.00"
"11:19:58","57.4","50.8","78.7","29.74","299","4","11.5","0.00","0.00"
"11:24:59","57","50.3","78.3","29.74","340","5.4","13.2","0.00","0.00"
"11:29:59","56.7","50.3","79","29.74","322","3","7.2","0.00","0.00"
"11:34:56","56.4","50.1","79.1","29.74","329","4.9","14.4","0.00","0.00"
"11:39:58","56.5","50","78.8","29.74","333","3.8","9.2","0.00","0.00"
"11:44:58","57","49.9","77.3","29.74","322","5.4","14.4","0.00","0.00"
"11:49:59","56.9","49.6","76.5","29.74","337","6.9","17.3","0.00","0.00"
"11:54:56","57.1","49.7","76.2","29.74","344","4.1","17.3","0.00","0.00"
"11:59:56","57.8","50.8","77.3","29.74","344","2.3","7.2","0.00","0.00"
"12:04:56","57.9","50.3","75.7","29.73","283","4","7.2","0.00","0.00"
"12:09:59","57.9","50.4","76.1","29.73","283","3.9","15","0.00","0.00"
"12:14:57","58","50.1","74.8","29.73","328","6.5","16.8","0.00","0.00"
"12:19:58","58.5","50.5","74.8","29.72","336","5.6","15","0.00","0.00"
"12:24:59","58.9","50.3","73.1","29.72","328","3.8","10.4","0.00","0.00"
"12:29:59","59","50.4","73","29.72","292","4.3","10.8","0.00","0.00"
"12:34:56","57.9","49.5","73.6","29.72","303","6","16.1","0.00","0.00"
"12:39:58","57.6","50.1","76.1","29.72","272","2.2","8.1","0.00","0.00"
"12:44:59","58","50","74.7","29.72","273","2.6","7.2","0.00","0.00"
"12:49:59","58","49.5","73.4","29.72","314","4.1","8.4","0.00","0.00"
"12:54:56","58.5","49.7","72.5","29.72","300","4.4","9.6","0.00","0.00"
"12:59:56","58.8","49.8","72.2","29.72","323","5","8.4","0.00","0.00"
"13:04:57","59.5","50.5","72.1","29.72","250","4.7","16.1","0.00","0.00"
"13:09:59","58.9","49.1","69.9","29.72","295","4.4","10.8","0.00","0.00"
"13:14:58","58.4","48.5","69.4","29.72","329","5.2","10.8","0.00","0.00"
"13:19:58","57.9","48.7","71.5","29.71","285","3.2","7.2","0.00","0.00"
"13:24:59","58","48.9","71.7","29.71","284","3.1","7.2","0.00","0.00"
"13:29:59","58.6","48.7","69.7","29.71","290","4.4","10.8","0.00","0.00"
"13:34:56","58.3","48.6","70.3","29.70","323","3.5","8.4","0.00","0.00"
"13:39:58","57.8","48.4","71","29.70","342","3.9","7.2","0.00","0.00"
"13:44:59","58.2","49.1","71.7","29.71","267","2.8","4.8","0.00","0.00"
"13:49:56","59.2","49.4","70.1","29.71","226","2.2","4.8","0.00","0.00"
"13:54:58","59.5","49.5","69.5","29.71","227","1.8","3.6","0.00","0.00"
"13:59:58","60.3","49.7","68.1","29.71","269","1.8","3.6","0.00","0.00"
"14:04:58","60.4","50","68.6","29.71","267","2.5","6","0.00","0.00"
"14:09:56","60.3","49","66.3","29.71","329","3","6","0.00","0.00"
"14:14:59","59.9","48.7","66.7","29.71","341","3.4","7.2","0.00","0.00"
"14:19:59","59.6","48.8","67.6","29.70","300","2.7","6","0.00","0.00"
"14:24:56","60","49.2","67.6","29.70","291","3","8.4","0.00","0.00"
"14:29:57","59.4","48.3","66.5","29.71","337","4.4","8.4","0.00","0.00"
"14:34:57","59.1","48.1","67.1","29.71","341","4.5","8.4","0.00","0.00"
"14:39:59","58.8","48","67.1","29.71","333","2.8","6","0.00","0.00"
"14:44:56","58.8","48.5","68.5","29.71","323","2.1","4.8","0.00","0.00"
"14:49:57","59.3","48.8","68.2","29.71","323","2","6","0.00","0.00"
"14:54:58","59.4","48.5","67.3","29.71","266","2.5","6","0.00","0.00"
"14:59:58","60.3","48.7","65.7","29.71","305","2.5","6","0.00","0.00"
"15:04:58","60.5","48.7","65","29.71","301","1.7","6","0.00","0.00"
"15:09:56","60.5","48.6","64.8","29.71","299","3.1","6","0.00","0.00"
"15:14:59","60.5","48.5","64.5","29.71","338","2.7","7.2","0.00","0.00"
"15:19:59","60.4","48.5","64.7","29.70","260","2.4","4.8","0.00","0.00"
"15:24:56","60.5","48.4","64.3","29.70","280","1.9","6","0.00","0.00"
"15:29:57","59.9","47.9","64.5","29.72","294","3.6","7.2","0.00","0.00"
"15:34:58","59.5","48.1","65.9","29.72","309","2.7","7.2","0.00","0.00"
"15:39:56","59.4","48","65.8","29.72","314","2","6","0.00","0.00"
"15:44:57","59.4","48","66","29.72","337","2.1","6","0.00","0.00"
"15:49:57","59.1","48","66.9","29.71","284","1.3","3.6","0.00","0.00"
"15:54:58","58.8","47.9","67.2","29.71","257","2","4.8","0.00","0.00"
"15:59:59","58.4","48.1","68.3","29.71","257","0.4","2.4","0.00","0.00"
"16:04:59","58","47.6","68.4","29.71","281","1.5","4.8","0.00","0.00"
"16:09:57","57.6","47.5","68.9","29.71","287","1.1","3.6","0.00","0.00"
"16:14:59","57.3","47.4","69.6","29.71","287","0.8","3.6","0.00","0.00"
"16:19:56","57","47.4","70.2","29.71","287","0.6","2.4","0.00","0.00"
"16:24:57","56.7","47.7","71.9","29.71","287","0","0","0.00","0.00"
"16:29:58","56.2","47.5","72.5","29.71","287","0","1.2","0.00","0.00"
"16:34:59","55.9","47.5","73.5","29.71","287","0","1.2","0.00","0.00"
"16:39:58","55.5","47.4","74.2","29.71","287","0","1.2","0.00","0.00"
"16:44:59","55.2","47.4","74.9","29.72","287","0","1.2","0.00","0.00"
"16:49:56","55","47.2","75","29.72","287","0.1","1.2","0.00","0.00"
"16:54:58","54.9","47.2","75.4","29.72","287","0.1","1.2","0.00","0.00"
"16:59:59","54.8","47.5","76.5","29.72","287","0","0","0.00","0.00"
"17:04:59","54.6","47.5","77","29.72","287","0","0","0.00","0.00"
"17:09:57","54.5","47.4","77.2","29.72","287","0","0","0.00","0.00"
"17:14:56","54.3","47.6","78","29.72","287","0","0","0.00","0.00"
"17:19:58","54.1","47.5","78.3","29.72","287","0.1","1.2","0.00","0.00"
"17:24:59","54","47.5","78.9","29.72","287","0","0","0.00","0.00"
"17:29:56","53.8","47.5","79.2","29.72","287","0","0","0.00","0.00"
"17:34:57","53.6","47.6","80","29.72","287","0","0","0.00","0.00"
"17:39:59","53.3","47.6","80.9","29.72","287","0","0","0.00","0.00"
"17:44:57","53.1","47.7","82","29.73","287","0","0","0.00","0.00"
"17:49:58","52.8","47.5","82.1","29.73","287","0","0","0.00","0.00"
"17:54:59","52.5","47.4","82.4","29.73","287","0","0","0.00","0.00"
"17:59:56","52.3","47.2","82.7","29.73","287","0","0","0.00","0.00"
"18:04:57","52","47","83","29.73","287","0","0","0.00","0.00"
"18:09:59","51.6","46.8","83.5","29.73","287","0","0","0.00","0.00"
"18:14:58","51.2","46.6","84.3","29.73","287","0","0","0.00","0.00"
"18:19:59","50.9","46.6","85.3","29.73","287","0","0","0.00","0.00"
"18:24:56","50.6","46.6","86","29.73","287","0","0","0.00","0.00"
"18:29:57","50.2","46.2","86","29.74","287","0","0","0.00","0.00"
"18:34:58","49.9","46.1","86.9","29.74","287","0","0","0.00","0.00"
"18:39:56","49.7","46.1","87.5","29.74","287","0","0","0.00","0.00"
"18:44:57","49.6","46.2","88","29.75","287","0","0","0.00","0.00"
"18:49:58","49.5","46.4","89","29.75","287","0","0","0.00","0.00"
"18:54:56","49.5","46.4","89","29.75","287","0","0","0.00","0.00"
"18:59:56","49.3","46.2","89","29.75","287","0","0","0.00","0.00"
"19:04:57","49.2","46.1","89","29.75","287","0","0","0.00","0.00"
"19:09:59","49.1","46.2","89.7","29.75","287","0","0","0.00","0.00"
"19:14:56","49.1","46.3","90","29.76","287","0.3","3.6","0.00","0.00"
"19:19:57","49.2","46.4","90","29.76","287","0.9","3.5","0.00","0.00"
"19:24:59","49.1","46.3","90","29.76","287","1.2","3.6","0.00","0.00"
"19:29:56","49.3","46.1","88.4","29.76","337","2","6","0.00","0.00"
"19:34:56","49.9","45.8","85.8","29.76","355","1.2","5.8","0.00","0.00"
"19:39:58","50.5","45.2","82","29.76","349","1.9","4.8","0.00","0.00"
"19:44:56","50.9","44.7","79.4","29.76","322","2.3","6","0.00","0.00"
"19:49:56","51","44.3","77.6","29.76","343","2.7","6","0.00","0.00"
"19:54:58","51","43.9","76.7","29.76","345","1.9","5.8","0.00","0.00"
"19:59:59","50.9","43.9","76.8","29.76","298","0.8","3.6","0.00","0.00"
"20:04:59","50.7","43.8","77.2","29.76","283","0.5","2.4","0.00","0.00"
"20:09:58","50.4","43.7","77.8","29.76","283","0.1","1.2","0.00","0.00"
"20:14:56","50.1","43.4","77.6","29.76","283","0","0","0.00","0.00"
"20:19:58","49.9","43","77","29.75","283","0","0","0.00","0.00"
"20:24:59","49.7","42.8","77","29.75","283","0","0","0.00","0.00"
"20:29:57","49.6","42.8","77.3","29.75","283","0","0","0.00","0.00"
"20:34:58","49.5","42.9","78.1","29.75","283","0","0","0.00","0.00"
"20:39:57","49.3","43.4","79.8","29.75","283","0","0","0.00","0.00"
"20:44:58","49.1","43.2","79.9","29.75","283","0","0","0.00","0.00"
"20:49:59","49","43.4","81","29.75","283","0","0","0.00","0.00"
"20:54:56","48.9","43.3","81","29.75","283","0","0","0.00","0.00"
"20:59:57","48.8","43.5","81.9","29.76","283","0","0","0.00","0.00"
"21:04:58","48.8","43.7","82.5","29.76","283","0","0","0.00","0.00"
"21:09:56","48.7","43","80.9","29.76","283","0","0","0.00","0.00"
"21:14:59","48.6","42.9","80.5","29.76","283","0","1.2","0.00","0.00"
"21:19:56","48.6","43.6","82.7","29.75","283","1.1","2.4","0.00","0.00"
"21:24:57","48.5","43.8","83.4","29.75","283","0.2","1.2","0.00","0.00"
"21:29:56","48.5","43.5","82.7","29.75","283","0","1.2","0.00","0.00"
"21:34:56","48.5","42.4","79.3","29.75","283","0","1.2","0.00","0.00"
"21:39:57","48.7","42.2","78.3","29.75","283","0","1.2","0.00","0.00"
"21:44:58","48.9","42.2","77.6","29.76","283","0.5","2.4","0.00","0.00"
"21:49:59","49","42.1","77","29.76","283","1","2.4","0.00","0.00"
"21:54:56","49.1","42.7","78.3","29.76","287","1","3.6","0.00","0.00"
"21:59:57","49.1","42.4","77.5","29.76","304","1.4","3.6","0.00","0.00"
"22:04:58","49.1","41.8","75.8","29.75","347","2.7","8.4","0.00","0.00"
"22:09:56","49.1","41.6","75.3","29.75","350","1.8","4.8","0.00","0.00"
"22:14:59","49.1","41.7","75.5","29.76","350","0.3","3.5","0.00","0.00"
"22:19:56","49","42","76.7","29.76","350","0","1.2","0.00","0.00"
"22:24:57","48.9","41.5","75.4","29.76","350","0","0","0.00","0.00"
"22:29:58","48.9","41.1","74.2","29.76","350","0.1","1.2","0.00","0.00"
"22:34:59","49.1","40.9","73.4","29.76","351","1.5","3.6","0.00","0.00"
"22:39:58","49.2","40.8","72.6","29.76","355","0.6","3.5","0.00","0.00"
"22:44:59","49.3","40.7","72","29.76","355","0","1.2","0.00","0.00"
"22:49:56","49.4","40.8","72.2","29.76","355","0","1.2","0.00","0.00"
"22:54:57","49.4","40.7","72","29.76","355","0.2","1.2","0.00","0.00"
"22:59:58","49.3","40.7","72","29.76","355","1.1","4.8","0.00","0.00"
"23:04:59","49.3","40.7","72","29.75","355","0.6","3.5","0.00","0.00"
"23:09:57","49.2","40.6","72","29.75","355","0.3","2.4","0.00","0.00"
"23:14:56","49.2","40.8","72.7","29.76","355","0","1.2","0.00","0.00"
"23:19:57","49.1","40.8","73","29.76","355","0","2.4","0.00","0.00"
"23:24:59","49","40.7","73","29.76","355","0.4","3.6","0.00","0.00"
"23:29:56","49","40.4","72.2","29.76","355","0.6","2.4","0.00","0.00"
"23:34:57","49","40.5","72.6","29.75","355","0.5","2.4","0.00","0.00"
"23:39:59","48.9","41","74.1","29.75","355","0","0","0.00","0.00"
"23:44:57","48.7","40.6","73.5","29.76","323","0.4","3.6","0.00","0.00"
